Regional Weather Roundup
Issued by NWS

Home | Current Version | Previous Version | Graphics & Text | Print | Product List | Glossary On
Versions: 1 2 3 4 5 6 7 8 9 10 11 12 13 14 15 16 17 18 19 20 21 22 23 24 25 26 27 28 29 30 31 32 33 34 35 36 37 38 39 40 41 42 43 44 45 46 47 48 49 50
362
ASUS43 KLMK 280302
RWRKY
KENTUCKY REGIONAL WEATHER ROUNDUP
NATIONAL WEATHER SERVICE LOUISVILLE KY
1100 PM EDT THU APR 27 2017

NOTE "FAIR" INDICATES FEW OR NO CLOUDS BELOW 12,000 FEET
WITH NO SIGNIFICANT WEATHER AND/OR OBSTRUCTIONS TO VISIBILITY.

KYZ001>023-026-027-061>063-070>075-280400-
WESTERN AND SOUTH CENTRAL KENTUCKY

CITY           SKY/WX    TMP DP  RH WIND       PRES   REMARKS
PADUCAH        PTCLDY    51  49  92 CALM      29.86R
HENDERSON      PTCLDY    49  48  97 CALM      29.90R
OWENSBORO      PTCLDY    53  49  86 CALM      29.90R
HOPKINSVILLE   CLEAR     55  51  86 CALM      29.88R
BOWLING GREEN  CLEAR     54  52  93 CALM      29.88R
GLASGOW        NOT AVBL
$$

KYZ024-025-028>034-038-045-046-053-280400-
NORTH CENTRAL KENTUCKY

CITY           SKY/WX    TMP DP  RH WIND       PRES   REMARKS
LOUISVILLE/SDF MOCLDY    55  48  77 W5        29.88S
LOUISVILLE/LOU CLEAR     56  50  80 CALM      29.89R
FORT KNOX      PTCLDY    48  47  97 N3        29.86F
$$

KYZ035>037-039>044-047>052-055>060-089>105-280400-
NORTHEAST KENTUCKY

CITY           SKY/WX    TMP DP  RH WIND       PRES   REMARKS
LEXINGTON      CLEAR     55  46  71 CALM      29.89R
COVINGTON      CLEAR     50  48  93 S3        29.88R
FRANKFORT      CLEAR     52  46  80 CALM      29.88R
$$

KYZ054-064>069-076>088-106>120-280400-
SOUTHEAST KENTUCKY

CITY           SKY/WX    TMP DP  RH WIND       PRES   REMARKS
JACKSON        CLEAR     62  50  64 CALM      29.90R
LONDON         CLEAR     62  52  69 CALM      29.90R
SOMERSET       CLEAR     57  50  77 CALM      29.91R
MIDDLESBORO    CLEAR     58  55  90 CALM      29.91R
MONTICELLO     CLEAR     56  52  86 NW8       29.91R
$$





USA.gov is the U.S. government's official web portal to all federal, state and local government web resources and services.